User: anonymous   Login
Location: Saddleback Butte
(34.6776°N, 117.8050°W)
Time: 09:45:15
(UTC-07:00)
Language:

Cosmos 1862 Rocket - Orbit

View from above orbital plane
View from above orbital plane
View from above satellite
View from above satellite

Ground track
Ground track

The orbit data is extracted from the following two-line orbital elements,

1 18153U 87055B   14297.51111650  .00000722  00000-0  86244-4 0  4855
2 18153 082.4986 291.8269 0022217 031.5086 084.4628 14.82708589475090
Epoch (UTC): 24 October 2014 12:16:00
Eccentricity: 0.0022217
inclination: 82.4986°
perigee height: 605 km
apogee height: 636 km
right ascension of ascending node: 291.8269°
argument of perigee: 31.5086°
revolutions per day: 14.82708589
mean anomaly at epoch: 84.4628°
orbit number at epoch: 47509

The dashed part of the orbit path shows where the satellite is in the earth's shadow,  

DLR